Regional Weather Roundup
Issued by NWS

Home | Current Version | Previous Version | Text Only | Print | Product List | Glossary On
Versions: 1 2 3 4 5 6 7 8 9 10 11 12 13 14 15 16 17 18 19 20 21 22 23 24 25 26 27 28 29 30 31 32 33 34 35 36 37 38 39 40 41 42 43 44 45 46 47 48 49 50
000
ASUS44 KMEG 282010
RWRTN
TENNESSEE HOURLY STATE WEATHER ROUNDUP
NATIONAL WEATHER SERVICE MEMPHIS TN
300 PM CDT WED JUN 28 2017

TNZ002-004-019-021-049-052-054-088>092-282100-
WEST TENNESSEE

CITY           SKY/WX    TMP DP  RH WIND       PRES   REMARKS
MEMPHIS INTL   MOSUNNY   88  64  44 SE13      30.01F
NWS MEMPHIS      N/A     89 N/A N/A MISG        N/A
JACKSON        MOSUNNY   87  65  47 S8        30.02F
SOMERVILLE     MOSUNNY   86  64  48 S9        30.01F
COVINGTON      MOSUNNY   86  63  45 S9G16     30.01F
UNION CITY     SUNNY     86  64  48 S10G17    30.00F
BOLIVAR        MOSUNNY   86  64  48 S9        30.03F
HUNTINGDON     MOSUNNY   86  64  48 S10       30.02F
LEXINGTON      MOSUNNY   86  63  45 CALM      30.04F
SELMER         MOSUNNY   86  63  45 S6        30.04F
SAVANNAH       SUNNY     88  61  40 CALM      30.03F
$$

TNZ008-025-027-028-033-062-065-066-282100-
NORTH MIDDLE TENNESSEE

CITY           SKY/WX    TMP DP  RH WIND       PRES   REMARKS
NASHVILLE      MOSUNNY   86  55  34 S3        30.07F
PORTLAND       SUNNY     82  57  42 SE6G13    30.08F
CLARKSVILLE    SUNNY     84  59  42 SW10      30.05F
SMYRNA         SUNNY     85  59  41 E8        30.08F
COOKEVILLE     SUNNY     82  52  34 SW7       30.12S
GALLATIN       SUNNY     86  55  35 VRB5      30.10F
CROSSVILLE     SUNNY     79  47  32 SW3       30.17F
$$

TNZ061-075-076-078-094-096-097-282100-
SOUTH MIDDLE TENNESSEE

CITY           SKY/WX    TMP DP  RH WIND       PRES   REMARKS
FAYETTEVILLE   SUNNY     82  61  47 E7        30.09F
TULLAHOMA      SUNNY     82  52  34 VRB7      30.12F
WINCHESTER     SUNNY     86  59  39 VRB3      30.10F
MCMINNVILLE    SUNNY     84  57  39 SE6       30.12F
COLUMBIA       SUNNY     84  61  45 S8        30.05F
SHELBYVILLE    SUNNY     84  55  37 CALM      30.09F
$$

TNZ017-018-042-046-047-282100-
NORTHEAST TENNESSEE

CITY           SKY/WX    TMP DP  RH WIND       PRES   REMARKS
TRI CITIES     MOSUNNY   82  53  36 SW7G16    30.16F
ELIZABETHTON   MOSUNNY   82  55  39 NW8       30.16F
$$

TNZ012-013-036-069-073-074-282100-
CENTRAL EAST TENNESSEE

CITY           SKY/WX    TMP DP  RH WIND       PRES   REMARKS
KNOXVILLE      MOSUNNY   83  57  41 SW6       30.11F
OAK RIDGE      SUNNY     83  55  38 VRB3      30.14F
DOWNTOWN KNOXV SUNNY     84  61  45 VRB3      30.11F
GATLINBURG     MOSUNNY   86  55  35 VRB5      30.11F
MORRISTOWN     SUNNY     82  57  42 N8        30.13F
JACKSBORO      SUNNY     82  55  39 SW9       30.17F
$$

TNZ083-085-099-282100-
SOUTHEAST TENNESSEE

CITY           SKY/WX    TMP DP  RH WIND       PRES   REMARKS
CHATTANOOGA    MOSUNNY   85  52  32 SE6       30.11F
DAYTON         CLEAR     84  59  42 SW9       30.11F
$$

SKY/WX REPORTED AS FAIR MEANS FEW OR NO CLOUDS BELOW
12 THOUSAND FEET.





USA.gov is the U.S. government's official web portal to all federal, state and local government web resources and services.